When you browse on this site, cookies collect data to enhance your experience and personalize the content and advertising you see.
Visit our Privacy Policy to learn more. By continuing to use the site, you agree to this use of cookies and data.
  • In Hungary
  • List of Countries
  • For 7 days
  • Water Temperature
  • Satellite Maps
  • Weather Map
  • News
  • Weather Widgets
  • user-avatar
    Login

    Hourly Weather Bujakow

    Today, 18 November, Sunday

    Time Temperature Precipitation Wind Pressure Humidity
    00:00 -3°C° 0 mm 2 mps 736 mmHg 61%
    01:00 -3°C° 0 mm 2 mps 736 mmHg 62%
    02:00 -3°C° 0 mm 2 mps 735 mmHg 63%
    03:00 -3°C° 0 mm 2 mps 735 mmHg 64%
    04:00 -4°C° 0 mm 2 mps 735 mmHg 66%
    05:00 -2°C° 0 mm 1 mps 734 mmHg 67%
    06:00 -2°C° 0 mm 1 mps 734 mmHg 68%
    07:00 -2°C° 0 mm 1 mps 733 mmHg 69%
    08:00 0°C° 0 mm 1 mps 733 mmHg 64%
    09:00 +1°C° 0 mm 1 mps 733 mmHg 60%
    10:00 +1°C° 0 mm 2 mps 733 mmHg 55%
    11:00 +2°C° 0 mm 2 mps 732 mmHg 54%
    12:00 +2°C° 0 mm 2 mps 732 mmHg 53%
    13:00 +3°C° 0 mm 2 mps 731 mmHg 51%
    14:00 +2°C° 0.1 mm 2 mps 730 mmHg 54%
    15:00 +1°C° 0.1 mm 2 mps 730 mmHg 56%
    16:00 -1°C° 0.1 mm 2 mps 729 mmHg 59%
    17:00 -1°C° 0.1 mm 2 mps 729 mmHg 61%
    18:00 -2°C° 0.1 mm 2 mps 729 mmHg 62%
    19:00 -2°C° 0.1 mm 2 mps 728 mmHg 64%
    20:00 -2°C° 0 mm 2 mps 728 mmHg 67%
    21:00 -3°C° 0 mm 2 mps 728 mmHg 70%
    22:00 -3°C° 0 mm 2 mps 728 mmHg 73%
    23:00 -3°C° 0 mm 2 mps 728 mmHg 74%

    Tomorrow, 19 November, Monday

    Time Temperature Precipitation Wind Pressure Humidity
    00:00 -3°C° 0 mm 2 mps 728 mmHg 75%
    01:00 -3°C° 0 mm 2 mps 727 mmHg 76%
    02:00 -3°C° 0 mm 2 mps 727 mmHg 77%
    03:00 -3°C° 0 mm 2 mps 727 mmHg 79%
    04:00 -3°C° 0 mm 2 mps 726 mmHg 80%
    05:00 -4°C° 0 mm 2 mps 726 mmHg 81%
    06:00 -4°C° 0 mm 2 mps 726 mmHg 83%
    07:00 -4°C° 0 mm 2 mps 726 mmHg 85%
    08:00 -4°C° 0 mm 3 mps 726 mmHg 79%
    09:00 -2°C° 0 mm 3 mps 726 mmHg 73%
    10:00 -1°C° 0 mm 3 mps 727 mmHg 68%
    11:00 -2°C° 0 mm 4 mps 726 mmHg 65%
    12:00 -1°C° 0 mm 4 mps 726 mmHg 62%
    13:00 -1°C° 0 mm 4 mps 726 mmHg 59%
    14:00 -1°C° 0 mm 4 mps 726 mmHg 62%
    15:00 -1°C° 0 mm 3 mps 726 mmHg 64%
    16:00 -2°C° 0 mm 3 mps 726 mmHg 67%
    17:00 -2°C° 0 mm 3 mps 727 mmHg 68%
    18:00 -2°C° 0 mm 3 mps 727 mmHg 68%
    19:00 -4°C° 0 mm 3 mps 727 mmHg 69%
    20:00 -4°C° 0 mm 3 mps 727 mmHg 70%
    21:00 -4°C° 0 mm 3 mps 727 mmHg 71%
    22:00 -4°C° 0 mm 3 mps 728 mmHg 71%
    23:00 -5°C° 0 mm 3 mps 727 mmHg 72%

    Day after tomorrow, 20 November, Tuesday

    Time Temperature Precipitation Wind Pressure Humidity
    00:00 -5°C° 0 mm 3 mps 727 mmHg 74%
    01:00 -5°C° 0 mm 3 mps 727 mmHg 75%
    02:00 -5°C° 0 mm 3 mps 727 mmHg 75%
    03:00 -5°C° 0 mm 3 mps 727 mmHg 75%
    04:00 -5°C° 0 mm 3 mps 726 mmHg 75%
    05:00 -5°C° 0 mm 3 mps 726 mmHg 77%
    06:00 -5°C° 0 mm 3 mps 726 mmHg 79%
    07:00 -5°C° 0 mm 3 mps 726 mmHg 81%
    08:00 -4°C° 0 mm 3 mps 726 mmHg 77%
    09:00 -2°C° 0 mm 3 mps 726 mmHg 73%
    10:00 -1°C° 0 mm 3 mps 726 mmHg 69%
    11:00 -1°C° 0 mm 4 mps 725 mmHg 68%
    12:00 0°C° 0 mm 4 mps 725 mmHg 66%
    13:00 0°C° 0 mm 4 mps 724 mmHg 65%
    14:00 0°C° 0.3 mm 4 mps 724 mmHg 69%
    15:00 -1°C° 0.3 mm 4 mps 724 mmHg 72%
    16:00 -1°C° 0.3 mm 4 mps 723 mmHg 75%
    17:00 -1°C° 0.3 mm 4 mps 723 mmHg 78%
    18:00 -1°C° 0.3 mm 4 mps 723 mmHg 80%
    19:00 -1°C° 0.3 mm 4 mps 722 mmHg 82%
    20:00 -1°C° 0.4 mm 4 mps 722 mmHg 85%
    21:00 -1°C° 0.4 mm 4 mps 722 mmHg 88%
    22:00 0°C° 0.4 mm 3 mps 722 mmHg 90%
    23:00 -1°C° 0.1 mm 3 mps 722 mmHg 91%

    21 November, Wednesday

    Time Temperature Precipitation Wind Pressure Humidity
    00:00 -1°C° 0.1 mm 3 mps 722 mmHg 91%
    01:00 -1°C° 0.1 mm 3 mps 722 mmHg 91%
    02:00 -1°C° 0.1 mm 3 mps 722 mmHg 91%
    03:00 -1°C° 0.1 mm 3 mps 722 mmHg 91%
    04:00 0°C° 0.1 mm 3 mps 722 mmHg 90%
    05:00 0°C° 0.2 mm 3 mps 723 mmHg 91%
    06:00 0°C° 0.2 mm 3 mps 723 mmHg 91%
    07:00 0°C° 0.2 mm 3 mps 723 mmHg 91%
    08:00 0°C° 0.2 mm 3 mps 723 mmHg 90%
    09:00 0°C° 0.2 mm 3 mps 724 mmHg 89%
    10:00 0°C° 0.2 mm 3 mps 724 mmHg 89%
    11:00 +1°C° 0.1 mm 3 mps 724 mmHg 88%
    12:00 +1°C° 0.1 mm 3 mps 724 mmHg 88%
    13:00 +1°C° 0.1 mm 3 mps 725 mmHg 88%
    14:00 +1°C° 0 mm 3 mps 725 mmHg 89%
    15:00 +1°C° 0 mm 3 mps 725 mmHg 89%
    16:00 0°C° 0 mm 3 mps 725 mmHg 90%
    17:00 0°C° 0 mm 3 mps 725 mmHg 90%
    18:00 0°C° 0 mm 3 mps 725 mmHg 90%
    19:00 0°C° 0 mm 3 mps 726 mmHg 90%
    20:00 0°C° 0 mm 3 mps 726 mmHg 90%
    21:00 0°C° 0 mm 3 mps 726 mmHg 91%
    22:00 0°C° 0 mm 3 mps 726 mmHg 91%
    23:00 0°C° 0 mm 3 mps 726 mmHg 91%

    22 November, Thursday

    Time Temperature Precipitation Wind Pressure Humidity
    00:00 0°C° 0 mm 3 mps 726 mmHg 91%
    01:00 0°C° 0 mm 3 mps 726 mmHg 91%
    02:00 0°C° 0 mm 3 mps 726 mmHg 91%
    03:00 0°C° 0 mm 3 mps 727 mmHg 91%
    04:00 -1°C° 0 mm 3 mps 727 mmHg 91%
    05:00 -1°C° 0 mm 3 mps 727 mmHg 91%
    06:00 -1°C° 0 mm 3 mps 727 mmHg 91%
    07:00 -1°C° 0 mm 3 mps 727 mmHg 91%
    08:00 0°C° 0 mm 3 mps 727 mmHg 89%
    09:00 0°C° 0 mm 3 mps 728 mmHg 88%
    10:00 +1°C° 0 mm 3 mps 728 mmHg 87%
    11:00 +1°C° 0 mm 3 mps 728 mmHg 85%
    12:00 +2°C° 0 mm 3 mps 728 mmHg 84%
    13:00 +3°C° 0 mm 3 mps 728 mmHg 83%
    14:00 +2°C° 0 mm 3 mps 728 mmHg 85%
    15:00 +1°C° 0 mm 3 mps 728 mmHg 88%
    16:00 +1°C° 0 mm 3 mps 729 mmHg 90%
    17:00 +1°C° 0 mm 2 mps 729 mmHg 91%
    18:00 +1°C° 0 mm 2 mps 729 mmHg 91%
    19:00 +1°C° 0 mm 2 mps 729 mmHg 92%
    20:00 +1°C° 0 mm 2 mps 729 mmHg 92%
    21:00 +1°C° 0 mm 2 mps 729 mmHg 92%
    22:00 +1°C° 0 mm 2 mps 730 mmHg 92%
    23:00 +1°C° 0 mm 2 mps 730 mmHg 92%

    23 November, Friday

    Time Temperature Precipitation Wind Pressure Humidity
    00:00 +1°C° 0 mm 2 mps 730 mmHg 92%
    01:00 +2°C° 0 mm 1 mps 730 mmHg 92%
    02:00 +2°C° 0 mm 1 mps 730 mmHg 93%
    03:00 +2°C° 0 mm 1 mps 730 mmHg 93%
    04:00 +2°C° 0 mm 1 mps 730 mmHg 93%
    05:00 +2°C° 0 mm 1 mps 730 mmHg 93%
    06:00 +3°C° 0 mm 1 mps 730 mmHg 93%
    07:00 +3°C° 0 mm 1 mps 730 mmHg 93%
    08:00 +4°C° 0 mm 1 mps 730 mmHg 90%
    09:00 +5°C° 0 mm 1 mps 730 mmHg 88%
    10:00 +6°C° 0 mm 1 mps 731 mmHg 85%
    11:00 +7°C° 0 mm 1 mps 730 mmHg 83%
    12:00 +7°C° 0 mm 1 mps 730 mmHg 80%
    13:00 +8°C° 0 mm 1 mps 730 mmHg 78%
    14:00 +7°C° 0 mm 1 mps 729 mmHg 82%
    15:00 +6°C° 0 mm 1 mps 729 mmHg 85%
    16:00 +5°C° 0 mm 1 mps 729 mmHg 89%
    17:00 +5°C° 0 mm 1 mps 729 mmHg 89%
    18:00 +5°C° 0 mm 1 mps 729 mmHg 90%
    19:00 +5°C° 0 mm 1 mps 728 mmHg 90%
    20:00 +5°C° 0 mm 1 mps 728 mmHg 90%
    21:00 +5°C° 0 mm 1 mps 728 mmHg 90%
    22:00 +5°C° 0 mm 1 mps 728 mmHg 89%
    23:00 +5°C° 0 mm 1 mps 727 mmHg 89%
    Show more